Terminal Aerodrome Forecast
Issued by NWS Lake Charles, LA

Home | Current Version | Previous Version | Text Only | Print | Product List | Glossary On
Versions: 1 2 3 4 5 6 7 8 9 10 11 12 13 14 15
000
FTUS44 KLCH 221137
TAFLCH
TAF
KLCH 221137Z 2212/2312 01010KT P6SM SKC
     FM221500 02015G20KT P6SM SKC
     FM230100 01007KT P6SM SKC=

USA.gov is the U.S. government's official web portal to all federal, state and local government web resources and services.